EW4052 Weather Reports


time (UTC)temp
C
wind
direction
speed
KPH
gust
KPH
rain 1hr
cm
rain 24hr
cm
rain mn
cm
humidity
%
barometer
mb
20260502213045 17 214 0.0 20.9 0.00 0.00 0.00 30 1014.8
20260502211542 17 214 8.0 20.9 0.00 0.00 0.00 30 1015.3
20260502210042 16 251 3.2 16.1 0.00 0.00 0.00 34 1015.3
20260502204542 16 231 8.0 16.1 0.00 0.00 0.00 31 1015.6
20260502203036 17 234 8.0 24.1 0.00 0.00 0.00 32 1015.9
20260502201536 16 240 9.7 27.4 0.00 0.00 0.00 32 1016.1
20260502200032 16 234 12.9 25.7 0.00 0.00 0.00 31 1016.3
20260502194528 16 220 3.2 17.7 0.00 0.00 0.00 30 1016.5
20260502193026 15 243 9.7 14.5 0.00 0.00 0.00 34 1016.7
20260502191526 15 270 1.6 20.9 0.00 0.00 0.00 33 1017.0
20260502190027 15 254 6.4 22.5 0.00 0.00 0.00 32 1017.3
20260502184519 15 240 12.9 27.4 0.00 0.00 0.00 30 1017.6
20260502183016 15 244 1.6 14.5 0.00 0.00 0.00 31 1017.9
20260502181513 15 227 8.0 27.4 0.00 0.00 0.00 31 1018.1
20260502163056 12 243 4.8 14.5 0.00 0.00 0.00 40 1019.4
20260502161619 11 252 3.2 22.5 0.00 0.00 0.00 42 1019.6
20260502160116 11 254 9.7 16.1 0.00 0.00 0.00 43 1019.7
20260502151544 10 252 6.4 20.9 0.00 0.00 0.00 47 1020.1
20260502123012 -17 273 1.6 6.4 0.00 0.00 0.00 1020.2
20260502121506 -17 281 0.0 0.0 0.00 0.00 0.00 1020.2
20260502114559 -17 287 0.0 0.0 0.00 0.00 0.00 1019.9
20260502113054 -17 288 0.0 1.6 0.00 0.00 0.00 1019.8
20260502111552 -17 288 0.0 0.0 0.00 0.00 0.00 1019.8
20260502110049 1 288 0.0 0.0 0.00 0.00 0.00 68 1019.8
20260502104544 1 288 0.0 0.0 0.00 0.00 0.00 68 1019.8
20260502103043 1 288 0.0 0.0 0.00 0.00 0.00 70 1019.7
20260502101550 1 288 0.0 0.0 0.00 0.00 0.00 72 1019.8
20260502071518 3 288 0.0 0.0 0.00 0.00 0.00 66 1019.7
20260502070020 3 288 0.0 0.0 0.00 0.00 0.00 66 1019.7
20260502064518 3 288 0.0 0.0 0.00 0.00 0.00 67 1019.7
20260502063015 3 288 0.0 0.0 0.00 0.00 0.00 68 1019.7
20260502061513 4 288 0.0 0.0 0.00 0.00 0.00 67 1019.8
20260502060011 4 288 0.0 0.0 0.00 0.00 0.00 66 1019.7
20260502054515 5 288 0.0 0.0 0.00 0.00 0.00 65 1019.6
20260502053004 5 288 0.0 0.0 0.00 0.00 0.00 63 1019.6
20260502051502 6 288 0.0 4.8 0.00 0.00 0.00 61 1019.5
20260502050058 6 288 0.0 0.0 0.00 0.00 0.00 59 1019.5
20260502044557 6 287 0.0 0.0 0.00 0.00 0.00 59 1019.4
20260502043110 7 286 0.0 0.0 0.00 0.00 0.00 58 1019.3
20260502041557 7 308 3.2 8.0 0.00 0.00 0.00 58 1019.2
20260502040105 7 317 3.2 9.7 0.00 0.00 0.00 58 1019.2
20260502034602 8 336 8.0 12.9 0.00 0.00 0.00 57 1019.2
20260502033058 7 310 6.4 11.3 0.00 0.00 0.00 57 1019.2
20260502031552 7 306 4.8 9.7 0.00 0.00 0.00 57 1019.2
20260502030052 8 307 1.6 6.4 0.00 0.00 0.00 56 1019.2
20260502024608 8 320 0.0 9.7 0.00 0.00 0.00 54 1019.0
20260502023049 8 313 4.8 11.3 0.00 0.00 0.00 52 1018.8
20260502021550 8 308 6.4 11.3 0.00 0.00 0.00 53 1018.8
20260502020047 8 304 8.0 11.3 0.00 0.00 0.00 52 1018.6
20260502014545 9 291 4.8 9.7 0.00 0.00 0.00 51 1018.3
20260502013043 9 331 6.4 9.7 0.00 0.00 0.00 48 1018.2
20260502011542 10 339 9.7 14.5 0.00 0.00 0.00 48 1018.1
20260502010049 10 333 11.3 17.7 0.00 0.00 0.00 48 1018.0
20260502004553 10 312 8.0 14.5 0.00 0.00 0.00 45 1017.8
20260502003037 10 333 9.7 17.7 0.00 0.00 0.00 48 1017.7
20260502001537 10 355 9.7 16.1 0.00 0.00 0.00 47 1017.6
20260502000034 11 348 14.5 22.5 0.00 0.00 0.00 46 1017.5
20260501234534 11 344 11.3 17.7 0.00 0.00 0.00 43 1017.4
20260501233034 11 320 12.9 22.5 0.00 0.00 0.00 47 1017.4
20260501231533 12 335 9.7 19.3 0.00 0.00 0.00 43 1017.4
20260501230034 11 333 12.9 19.3 0.00 0.00 0.00 44 1017.3
20260501224533 11 305 12.9 20.9 0.00 0.00 0.00 44 1017.3
20260501223031 12 348 12.9 19.3 0.00 0.00 0.00 42 1017.3
20260501221530 11 344 11.3 17.7 0.00 0.00 0.00 40 1017.3
20260501220035 12 305 0.0 14.5 0.00 0.00 0.00 42 1017.2
20260501214529 12 339 8.0 17.7 0.00 0.00 0.00 41 1017.2